Weather History for KMOB - December, 2013

Change the Weather History Date:

Thursday, December 5, 2013

  Actual Average Record
Temperature  
Mean Temperature 75 °F 54 °F  
Max Temperature 78 °F 65 °F 79 °F (1998)
Min Temperature 72 °F 44 °F 24 °F (1886)
Degree Days  
Heating Degree Days 0 11  
Month to date heating degree days 19 54  
Since 1 July heating degree days 303 312  
Cooling Degree Days 10 1  
Month to date cooling degree days 19 5  
Year to date cooling degree days 2514 2508  
Growing Degree Days 25 (Base 50)    
Moisture  
Dew Point 72 °F    
Average Humidity 90    
Maximum Humidity 100    
Minimum Humidity 79    
Precipitation  
Precipitation 0.02 in 0.16 in 1.56 in (1953)
Month to date precipitation 0.26 0.81  
Year to date precipitation 62.17 61.90  
Snow  
Snow 0.00 in 0.00 in 0.00 in (2002)
Month to date snowfall 0.0 0.0  
Since 1 July snowfall 0.0 0.0  
Snow Depth 0.00 in    
Sea Level Pressure  
Sea Level Pressure 30.00 in    
Wind  
Wind Speed 14 mph (South)    
Max Wind Speed 22 mph    
Max Gust Speed 31 mph    
Visibility 8 miles    
Events Rain    
T = Trace of Precipitation, MM = Missing Value Source: NWS Daily Summary

Daily Weather History Graph

Daily Weather History Graph

Search for Another Location

Airport or City:

Trip Planner

Search our weather history database for the weather conditions in past years. The results will help you decide how hot, cold, wet, or windy it might be!

Date:

Astronomy

Dec. 05, 2013 Rise Set
Actual Time 6:36 AM CST 4:51 PM CST
Civil Twilight 6:09 AM CST 5:17 PM CST
Nautical Twilight 5:39 AM CST 5:47 PM CST
Astronomical Twilight 5:10 AM CST 6:16 PM CST
Moon 9:01 AM CST (12/5) 8:05 PM CST (12/5)
Length of Visible Light 11h 07m
Length of Day
10h 15m
Waxing Crescent, 11% of the Moon is Illuminated
Dec 5
Waxing Crescent
Dec 9
First Quarter
Dec 17
Full
Dec 25
Last Quarter
Jan 1
New

Hourly Weather History & Observations

Time (CST) Temp. Dew Point Humidity Pressure Visibility Wind Dir Wind Speed Gust Speed Precip Events Conditions
12:56 AM 72.0 °F 71.1 °F 97% 29.98 in 10.0 mi SSW 11.5 mph - N/A   Overcast
1:56 AM 72.0 °F 71.1 °F 97% 29.97 in 10.0 mi SSW 11.5 mph - N/A   Overcast
2:56 AM 73.0 °F 72.0 °F 96% 29.97 in 10.0 mi South 9.2 mph - N/A   Overcast
3:56 AM 73.0 °F 71.1 °F 93% 29.97 in 10.0 mi SSW 8.1 mph - N/A   Overcast
4:56 AM 73.0 °F 72.0 °F 96% 29.98 in 10.0 mi South 11.5 mph - 0.01 in   Overcast
5:56 AM 73.0 °F 72.0 °F 96% 29.99 in 5.0 mi South 12.7 mph - N/A   Overcast
6:56 AM 73.0 °F 72.0 °F 96% 30.01 in 4.0 mi South 16.1 mph 21.9 mph N/A   Overcast
7:56 AM 73.9 °F 72.0 °F 93% 30.03 in 4.0 mi South 11.5 mph - N/A   Overcast
8:56 AM 75.0 °F 72.0 °F 90% 30.04 in 4.0 mi South 13.8 mph 20.7 mph 0.00 in   Overcast
9:16 AM 75.2 °F 71.6 °F 89% 30.05 in 5.0 mi South 15.0 mph 23.0 mph N/A   Overcast
9:56 AM 77.0 °F 72.0 °F 84% 30.04 in 7.0 mi South 16.1 mph 23.0 mph N/A   Overcast
10:28 AM 77.0 °F 71.6 °F 83% 30.05 in 7.0 mi South 16.1 mph - N/A   Overcast
10:56 AM 78.1 °F 71.1 °F 79% 30.04 in 7.0 mi South 16.1 mph 26.5 mph N/A   Overcast
11:56 AM 77.0 °F 71.1 °F 82% 30.02 in 7.0 mi South 13.8 mph 27.6 mph N/A   Overcast
12:56 PM 75.9 °F 72.0 °F 87% 29.99 in 7.0 mi South 16.1 mph - 0.01 in   Overcast
1:18 PM 75.2 °F 71.6 °F 89% 30.00 in 7.0 mi South 12.7 mph - 0.00 in Rain Light Rain
1:56 PM 75.9 °F 72.0 °F 87% 29.98 in 7.0 mi South 17.3 mph 23.0 mph 0.00 in   Overcast
2:22 PM 75.2 °F 71.6 °F 89% 29.99 in 8.0 mi South 11.5 mph 23.0 mph 0.00 in   Overcast
2:56 PM 75.9 °F 72.0 °F 87% 29.98 in 8.0 mi SSW 18.4 mph 23.0 mph 0.00 in   Overcast
3:27 PM 75.2 °F 71.6 °F 89% 29.98 in 10.0 mi South 11.5 mph - N/A   Overcast
3:56 PM 75.0 °F 72.0 °F 90% 29.98 in 10.0 mi South 15.0 mph 24.2 mph 0.00 in   Overcast
4:56 PM 73.9 °F 72.0 °F 93% 29.99 in 8.0 mi South 10.4 mph 24.2 mph 0.00 in   Overcast
5:41 PM 73.4 °F 71.6 °F 94% 30.00 in 7.0 mi South 13.8 mph 23.0 mph 0.00 in   Overcast
5:56 PM 73.9 °F 72.0 °F 93% 29.99 in 7.0 mi South 16.1 mph 24.2 mph 0.00 in   Overcast
6:49 PM 73.4 °F 71.6 °F 94% 30.00 in 7.0 mi South 16.1 mph 23.0 mph 0.00 in Rain Light Rain
6:56 PM 73.9 °F 72.0 °F 93% 30.00 in 7.0 mi South 13.8 mph 25.3 mph 0.00 in   Overcast
7:03 PM 73.4 °F 71.6 °F 94% 30.01 in 7.0 mi South 13.8 mph 23.0 mph N/A   Overcast
7:56 PM 73.9 °F 72.0 °F 93% 30.00 in 7.0 mi South 13.8 mph 20.7 mph N/A   Overcast
8:56 PM 73.9 °F 72.0 °F 93% 30.01 in 7.0 mi South 16.1 mph - N/A   Overcast
9:56 PM 73.9 °F 72.0 °F 93% 30.03 in 10.0 mi South 12.7 mph 20.7 mph N/A   Overcast
10:56 PM 73.9 °F 72.0 °F 93% 30.04 in 10.0 mi South 12.7 mph 20.7 mph N/A   Overcast
11:56 PM 73.0 °F 71.1 °F 93% 30.02 in 9.0 mi South 12.7 mph - N/A   Overcast